This demonstration page uses our WeatherBlox Daily Observations layout. Learn more.

Left ArrowRight Arrow

39.29038, -76.61219

Hourly Observations for March 15, 2015

Temp ( °F °C ) Dew Point ( °F °C ) Humidity (%) Winds ( mph kmh ) Pressure ( in mb ) Visibility ( mi km ) Precip ( " mm )
12:54 am 00:54 Mostly Cloudy 50 10 41 5 71 71 NW 9 15 29.85 1011 10 16 0.00 0.00
1:54 am 01:54 Partly Cloudy 47 8.3 37 2.8 69 69 WNW 10 17 29.87 1011 10 16 0.00 0.00
2:54 am 02:54 Clear 46 7.8 36 2.2 68 68 NW 9 15 29.86 1011 10 16 0.00 0.00
3:54 am 03:54 Mostly Clear 44 6.7 34 1.1 68 68 Calm 29.86 1011 10 16 0.00 0.00
4:54 am 04:54 Partly Cloudy 45 7.2 33 0.6 63 63 NW 10 17 29.85 1011 10 16 0.00 0.00
5:54 am 05:54 Mostly Cloudy 45 7.2 34 1.1 66 66 W 10 17 29.86 1011 10 16 0.00 0.00
6:54 am 06:54 Mostly Cloudy 46 7.8 35 1.7 66 66 W 13 20 29.87 1011 10 16 0.00 0.00
7:54 am 07:54 Cloudy 46 7.8 33 0.6 61 61 NW 14 22 29.90 1013 10 16 0.00 0.00
8:54 am 08:54 Cloudy 46 7.8 33 0.6 61 61 WNW 13 20 29.92 1013 10 16 0.00 0.00
9:54 am 09:54 Mostly Cloudy 46 7.8 32 0 58 58 W 15 24 29.94 1014 10 16 0.00 0.00
10:54 am 10:54 Mostly Cloudy 47 8.3 31 -0.6 54 54 WNW 16 26 29.94 1014 10 16 0.00 0.00
11:54 am 11:54 Mostly Cloudy 49 9.4 31 -0.6 50 50 W 23 37 29.95 1014 10 16 0.00 0.00
12:54 pm 12:54 Mostly Cloudy 49 9.4 31 -0.6 50 50 WNW 20 31 29.96 1014 10 16 0.00 0.00
1:54 pm 13:54 Partly Cloudy 52 11.1 31 -0.6 45 45 NW 25 41 29.95 1014 10 16 0.00 0.00
2:54 pm 14:54 Partly Cloudy 52 11.1 31 -0.6 45 45 WNW 21 33 29.94 1014 10 16 0.00 0.00
3:54 pm 15:54 Partly Cloudy 51 10.6 29 -1.7 43 43 WNW 16 26 29.96 1014 10 16 0.00 0.00
4:54 pm 16:54 Partly Cloudy 51 10.6 29 -1.7 43 43 NNW 17 28 29.97 1015 10 16 0.00 0.00
5:54 pm 17:54 Mostly Sunny 49 9.4 28 -2.2 44 44 NW 20 31 29.98 1015 10 16 0.00 0.00
6:54 pm 18:54 Partly Cloudy 46 7.8 28 -2.2 50 50 NW 13 20 30.01 1016 10 16 0.00 0.00
7:54 pm 19:54 Partly Cloudy 44 6.7 28 -2.2 53 53 WNW 8 13 30.04 1017 10 16 0.00 0.00
8:54 pm 20:54 Clear 42 5.6 28 -2.2 58 58 NW 6 9 30.07 1018 10 16 0.00 0.00
9:54 pm 21:54 Clear 41 5 28 -2.2 60 60 NW 3 6 30.09 1019 10 16 0.00 0.00
10:54 pm 22:54 Mostly Clear 40 4.4 27 -2.8 60 60 NW 8 13 30.10 1019 10 16 0.00 0.00
11:54 pm 23:54 Mostly Clear 39 3.9 27 -2.8 62 62 NW 5 7 30.10 1019 10 16 0.00 0.00

Powered by AerisWeather